• In Uzbekistan
  • List of Countries
  • For 7 days
  • Water Temperature
  • Satellite Maps
  • Weather Map
  • Weather Widgets
  • user-avatar
    Login

    Hourly Weather Sevan

    Today, 17 July, Wednesday

    Time Temperature Precipitation Wind Pressure Humidity
    00:00 +19°C° 0 mm 3 mps 638 mmHg 65%
    01:00 +18°C° 0 mm 2 mps 638 mmHg 65%
    02:00 +18°C° 0 mm 2 mps 638 mmHg 66%
    03:00 +17°C° 0 mm 2 mps 637 mmHg 68%
    04:00 +18°C° 0 mm 2 mps 638 mmHg 67%
    05:00 +19°C° 0 mm 2 mps 638 mmHg 66%
    06:00 +20°C° 0 mm 1 mps 639 mmHg 65%
    07:00 +21°C° 0 mm 2 mps 639 mmHg 60%
    08:00 +24°C° 0 mm 2 mps 639 mmHg 55%
    09:00 +26°C° 0 mm 2 mps 639 mmHg 50%
    10:00 +27°C° 0.1 mm 2 mps 640 mmHg 46%
    11:00 +29°C° 0.1 mm 3 mps 640 mmHg 42%
    12:00 +30°C° 0.1 mm 3 mps 640 mmHg 37%
    13:00 +30°C° 0.2 mm 3 mps 640 mmHg 35%
    14:00 +31°C° 0.2 mm 3 mps 640 mmHg 33%
    15:00 +31°C° 0.2 mm 3 mps 639 mmHg 31%
    16:00 +30°C° 0.1 mm 3 mps 639 mmHg 37%
    17:00 +29°C° 0.1 mm 3 mps 639 mmHg 42%
    18:00 +28°C° 0.1 mm 2 mps 639 mmHg 48%
    19:00 +26°C° 0 mm 3 mps 638 mmHg 52%
    20:00 +25°C° 0 mm 4 mps 638 mmHg 57%
    21:00 +22°C° 0 mm 4 mps 638 mmHg 61%
    22:00 +21°C° 0 mm 4 mps 638 mmHg 61%
    23:00 +21°C° 0 mm 3 mps 638 mmHg 61%

    Tomorrow, 18 July, Thursday

    Time Temperature Precipitation Wind Pressure Humidity
    00:00 +20°C° 0 mm 2 mps 638 mmHg 62%
    01:00 +20°C° 0 mm 2 mps 638 mmHg 64%
    02:00 +19°C° 0 mm 2 mps 638 mmHg 66%
    03:00 +19°C° 0 mm 2 mps 638 mmHg 68%
    04:00 +20°C° 0 mm 2 mps 639 mmHg 67%
    05:00 +20°C° 0 mm 2 mps 639 mmHg 66%
    06:00 +22°C° 0 mm 1 mps 639 mmHg 65%
    07:00 +24°C° 0 mm 2 mps 640 mmHg 58%
    08:00 +26°C° 0 mm 2 mps 640 mmHg 50%
    09:00 +28°C° 0 mm 2 mps 641 mmHg 43%
    10:00 +29°C° 0 mm 2 mps 641 mmHg 38%
    11:00 +30°C° 0 mm 3 mps 641 mmHg 33%
    12:00 +33°C° 0 mm 3 mps 641 mmHg 28%
    13:00 +33°C° 0 mm 3 mps 641 mmHg 27%
    14:00 +34°C° 0 mm 3 mps 641 mmHg 25%
    15:00 +34°C° 0 mm 3 mps 640 mmHg 23%
    16:00 +32°C° 0 mm 2 mps 640 mmHg 28%
    17:00 +32°C° 0 mm 2 mps 640 mmHg 33%
    18:00 +31°C° 0 mm 2 mps 640 mmHg 37%
    19:00 +29°C° 0 mm 2 mps 639 mmHg 44%
    20:00 +26°C° 0 mm 3 mps 639 mmHg 50%
    21:00 +24°C° 0 mm 3 mps 639 mmHg 56%
    22:00 +22°C° 0 mm 3 mps 639 mmHg 55%
    23:00 +21°C° 0 mm 3 mps 640 mmHg 53%

    Day after tomorrow, 19 July, Friday

    Time Temperature Precipitation Wind Pressure Humidity
    00:00 +20°C° 0 mm 2 mps 640 mmHg 52%
    01:00 +20°C° 0 mm 2 mps 640 mmHg 53%
    02:00 +19°C° 0 mm 2 mps 640 mmHg 54%
    03:00 +19°C° 0 mm 2 mps 640 mmHg 55%
    04:00 +19°C° 0 mm 2 mps 640 mmHg 56%
    05:00 +20°C° 0 mm 2 mps 640 mmHg 56%
    06:00 +21°C° 0 mm 1 mps 640 mmHg 57%
    07:00 +23°C° 0 mm 2 mps 641 mmHg 52%
    08:00 +25°C° 0 mm 2 mps 642 mmHg 48%
    09:00 +27°C° 0 mm 2 mps 643 mmHg 43%
    10:00 +29°C° 0 mm 2 mps 643 mmHg 38%
    11:00 +30°C° 0 mm 2 mps 643 mmHg 34%
    12:00 +31°C° 0 mm 2 mps 643 mmHg 30%
    13:00 +32°C° 0.1 mm 2 mps 643 mmHg 29%
    14:00 +32°C° 0.1 mm 2 mps 643 mmHg 29%
    15:00 +32°C° 0.1 mm 2 mps 643 mmHg 28%
    16:00 +31°C° 0.1 mm 3 mps 642 mmHg 36%
    17:00 +30°C° 0.1 mm 3 mps 642 mmHg 44%
    18:00 +28°C° 0.1 mm 4 mps 642 mmHg 52%
    19:00 +26°C° 0 mm 4 mps 642 mmHg 58%
    20:00 +23°C° 0 mm 4 mps 642 mmHg 64%
    21:00 +22°C° 0 mm 5 mps 642 mmHg 70%
    22:00 +21°C° 0 mm 4 mps 642 mmHg 71%
    23:00 +20°C° 0 mm 4 mps 642 mmHg 72%

    20 July, Saturday

    Time Temperature Precipitation Wind Pressure Humidity
    00:00 +20°C° 0 mm 4 mps 642 mmHg 74%
    01:00 +20°C° 0 mm 3 mps 642 mmHg 74%
    02:00 +19°C° 0 mm 3 mps 642 mmHg 75%
    03:00 +19°C° 0 mm 3 mps 642 mmHg 76%
    04:00 +19°C° 0 mm 2 mps 643 mmHg 74%
    05:00 +20°C° 0 mm 2 mps 643 mmHg 73%
    06:00 +20°C° 0 mm 2 mps 643 mmHg 72%
    07:00 +23°C° 0 mm 2 mps 644 mmHg 66%
    08:00 +25°C° 0 mm 2 mps 644 mmHg 60%
    09:00 +27°C° 0 mm 2 mps 645 mmHg 54%
    10:00 +28°C° 0 mm 2 mps 645 mmHg 50%
    11:00 +30°C° 0 mm 2 mps 645 mmHg 46%
    12:00 +31°C° 0 mm 2 mps 646 mmHg 42%
    13:00 +33°C° 0 mm 3 mps 646 mmHg 41%
    14:00 +33°C° 0 mm 3 mps 646 mmHg 40%
    15:00 +34°C° 0 mm 3 mps 645 mmHg 39%
    16:00 +32°C° 0 mm 4 mps 645 mmHg 45%
    17:00 +30°C° 0 mm 4 mps 645 mmHg 50%
    18:00 +29°C° 0 mm 5 mps 644 mmHg 56%
    19:00 +27°C° 0 mm 5 mps 644 mmHg 61%
    20:00 +25°C° 0 mm 5 mps 644 mmHg 66%
    21:00 +23°C° 0 mm 5 mps 644 mmHg 71%
    22:00 +22°C° 0 mm 5 mps 644 mmHg 70%
    23:00 +22°C° 0 mm 4 mps 645 mmHg 69%

    21 July, Sunday

    Time Temperature Precipitation Wind Pressure Humidity
    00:00 +21°C° 0 mm 4 mps 645 mmHg 69%
    01:00 +21°C° 0 mm 3 mps 644 mmHg 69%
    02:00 +20°C° 0 mm 3 mps 644 mmHg 69%
    03:00 +20°C° 0 mm 3 mps 644 mmHg 69%
    04:00 +20°C° 0 mm 2 mps 644 mmHg 68%
    05:00 +21°C° 0 mm 2 mps 644 mmHg 66%
    06:00 +21°C° 0 mm 2 mps 645 mmHg 65%
    07:00 +24°C° 0 mm 2 mps 645 mmHg 58%
    08:00 +26°C° 0 mm 2 mps 645 mmHg 51%
    09:00 +29°C° 0 mm 2 mps 646 mmHg 45%
    10:00 +30°C° 0 mm 2 mps 646 mmHg 41%
    11:00 +32°C° 0 mm 2 mps 646 mmHg 37%
    12:00 +34°C° 0 mm 3 mps 646 mmHg 33%
    13:00 +35°C° 0 mm 3 mps 646 mmHg 33%
    14:00 +35°C° 0 mm 3 mps 645 mmHg 33%
    15:00 +36°C° 0 mm 3 mps 645 mmHg 32%
    16:00 +34°C° 0 mm 4 mps 645 mmHg 39%
    17:00 +33°C° 0 mm 4 mps 644 mmHg 45%
    18:00 +32°C° 0 mm 4 mps 644 mmHg 52%
    19:00 +29°C° 0 mm 4 mps 643 mmHg 53%
    20:00 +27°C° 0 mm 4 mps 643 mmHg 55%
    21:00 +25°C° 0 mm 4 mps 643 mmHg 56%
    22:00 +25°C° 0 mm 4 mps 643 mmHg 55%
    23:00 +24°C° 0 mm 3 mps 643 mmHg 55%

    22 July, Monday

    Time Temperature Precipitation Wind Pressure Humidity
    00:00 +22°C° 0 mm 3 mps 643 mmHg 54%
    01:00 +22°C° 0 mm 3 mps 642 mmHg 55%
    02:00 +21°C° 0 mm 3 mps 642 mmHg 56%
    03:00 +21°C° 0 mm 3 mps 642 mmHg 57%
    04:00 +23°C° 0 mm 2 mps 642 mmHg 57%
    05:00 +23°C° 0 mm 2 mps 642 mmHg 56%
    06:00 +23°C° 0 mm 2 mps 642 mmHg 56%
    07:00 +26°C° 0 mm 2 mps 642 mmHg 51%
    08:00 +28°C° 0 mm 2 mps 643 mmHg 45%
    09:00 +30°C° 0 mm 2 mps 643 mmHg 40%
    10:00 +32°C° 0 mm 2 mps 643 mmHg 37%
    11:00 +34°C° 0 mm 2 mps 643 mmHg 34%
    12:00 +35°C° 0 mm 3 mps 643 mmHg 30%
    13:00 +36°C° 0 mm 3 mps 643 mmHg 31%
    14:00 +36°C° 0 mm 3 mps 643 mmHg 31%
    15:00 +37°C° 0 mm 2 mps 642 mmHg 31%
    16:00 +35°C° 0.1 mm 3 mps 642 mmHg 39%
    17:00 +33°C° 0.1 mm 5 mps 641 mmHg 47%
    18:00 +30°C° 0.1 mm 6 mps 641 mmHg 55%
    19:00 +28°C° 0 mm 5 mps 640 mmHg 57%
    20:00 +26°C° 0 mm 5 mps 640 mmHg 60%
    21:00 +23°C° 0 mm 5 mps 640 mmHg 63%
    22:00 +22°C° 0 mm 4 mps 640 mmHg 63%
    23:00 +22°C° 0 mm 4 mps 640 mmHg 63%
    Show more